Time,TemperatureF,DewpointF,PressureIn,WindDirection,WindDirectionDegrees,WindSpeedMPH,WindSpeedGustMPH,Humidity,HourlyPrecipIn,Conditions,Clouds,dailyrainin,SoftwareType,DateUTC
2013-04-28 00:03:00,54.9,35.0,29.86,SE,130,7.0,10.0,47,0.00,,,0.00,weatherlink.com 1.10,2013-04-28 06:03:00,
2013-04-28 00:18:00,53.5,36.0,29.86,NW,316,4.0,10.0,52,0.00,,,0.00,weatherlink.com 1.10,2013-04-28 06:18:00,
2013-04-28 00:33:00,54.0,36.0,29.86,NNW,343,5.0,8.0,50,0.00,,,0.00,weatherlink.com 1.10,2013-04-28 06:33:00,
2013-04-28 00:48:00,53.5,36.0,29.84,WNW,284,0.0,4.0,52,0.00,,,0.00,weatherlink.com 1.10,2013-04-28 06:48:00,
2013-04-28 01:03:00,53.3,36.0,29.83,NNE,25,2.0,8.0,52,0.00,,,0.00,weatherlink.com 1.10,2013-04-28 07:03:00,
2013-04-28 01:18:00,52.8,35.0,29.83,North,350,4.0,10.0,52,0.00,,,0.00,weatherlink.com 1.10,2013-04-28 07:18:00,
2013-04-28 01:33:00,52.7,36.0,29.84,NNW,332,5.0,10.0,53,0.00,,,0.00,weatherlink.com 1.10,2013-04-28 07:33:00,
2013-04-28 01:48:00,52.2,36.0,29.86,NNW,338,11.0,13.0,55,0.00,,,0.00,weatherlink.com 1.10,2013-04-28 07:48:00,
2013-04-28 02:03:00,51.9,36.0,29.86,North,10,7.0,12.0,55,0.00,,,0.00,weatherlink.com 1.10,2013-04-28 08:03:00,
2013-04-28 02:19:00,51.4,36.0,29.86,North,10,3.0,10.0,57,0.00,,,0.00,weatherlink.com 1.10,2013-04-28 08:19:00,
2013-04-28 02:34:00,51.9,36.0,29.86,NNE,26,6.0,8.0,55,0.00,,,0.00,weatherlink.com 1.10,2013-04-28 08:34:00,
2013-04-28 02:49:00,51.8,36.0,29.86,NE,42,5.0,9.0,56,0.00,,,0.00,weatherlink.com 1.10,2013-04-28 08:49:00,
2013-04-28 03:04:00,51.7,36.0,29.86,NE,44,3.0,7.0,56,0.00,,,0.00,weatherlink.com 1.10,2013-04-28 09:04:00,
2013-04-28 03:19:00,51.9,36.0,29.86,NNE,32,5.0,7.0,55,0.00,,,0.00,weatherlink.com 1.10,2013-04-28 09:19:00,
2013-04-28 03:34:00,51.9,36.0,29.85,NNE,26,6.0,9.0,55,0.00,,,0.00,weatherlink.com 1.10,2013-04-28 09:34:00,
2013-04-28 03:49:00,51.5,36.0,29.85,North,5,3.0,7.0,56,0.00,,,0.00,weatherlink.com 1.10,2013-04-28 09:49:00,
2013-04-28 04:04:00,51.4,36.0,29.85,NNE,13,6.0,12.0,56,0.00,,,0.00,weatherlink.com 1.10,2013-04-28 10:04:00,
2013-04-28 04:19:00,51.3,36.0,29.84,NNE,26,4.0,7.0,57,0.00,,,0.00,weatherlink.com 1.10,2013-04-28 10:19:00,
2013-04-28 04:34:00,51.1,36.0,29.84,NNE,17,2.0,7.0,57,0.00,,,0.00,weatherlink.com 1.10,2013-04-28 10:34:00,
2013-04-28 04:49:00,50.8,36.0,29.84,NNE,24,3.0,6.0,58,0.00,,,0.00,weatherlink.com 1.10,2013-04-28 10:49:00,
2013-04-28 05:04:00,50.6,36.0,29.84,NNE,12,4.0,6.0,58,0.00,,,0.00,weatherlink.com 1.10,2013-04-28 11:04:00,
2013-04-28 05:19:00,50.5,36.0,29.84,North,9,2.0,4.0,58,0.00,,,0.00,weatherlink.com 1.10,2013-04-28 11:19:00,
2013-04-28 05:34:00,50.5,36.0,29.84,NNE,12,6.0,9.0,58,0.00,,,0.00,weatherlink.com 1.10,2013-04-28 11:34:00,
2013-04-28 05:49:00,50.6,36.0,29.84,NE,43,8.0,9.0,58,0.00,,,0.00,weatherlink.com 1.10,2013-04-28 11:49:00,
2013-04-28 06:04:00,50.5,36.0,29.84,NNE,27,6.0,8.0,58,0.00,,,0.00,weatherlink.com 1.10,2013-04-28 12:04:00,
2013-04-28 06:19:00,51.0,36.0,29.84,NNW,336,9.0,11.0,57,0.00,,,0.00,weatherlink.com 1.10,2013-04-28 12:19:00,
2013-04-28 06:34:00,50.5,36.0,29.85,NNW,342,5.0,10.0,59,0.00,,,0.00,weatherlink.com 1.10,2013-04-28 12:34:00,
2013-04-28 06:49:00,50.2,37.0,29.85,NNW,338,8.0,11.0,61,0.00,,,0.00,weatherlink.com 1.10,2013-04-28 12:49:00,
2013-04-28 07:04:00,48.4,39.0,29.86,North,5,8.0,12.0,71,0.00,,,0.00,weatherlink.com 1.10,2013-04-28 13:04:00,
2013-04-28 07:19:00,48.9,38.0,29.85,NNW,333,8.0,11.0,66,0.00,,,0.00,weatherlink.com 1.10,2013-04-28 13:19:00,
2013-04-28 07:34:00,49.2,38.0,29.85,North,355,6.0,9.0,66,0.00,,,0.00,weatherlink.com 1.10,2013-04-28 13:34:00,
2013-04-28 07:49:00,50.1,37.0,29.84,West,281,6.0,13.0,62,0.00,,,0.00,weatherlink.com 1.10,2013-04-28 13:49:00,
2013-04-28 08:04:00,50.2,37.0,29.84,NW,316,6.0,12.0,61,0.00,,,0.00,weatherlink.com 1.10,2013-04-28 14:04:00,
2013-04-28 08:19:00,50.3,38.0,29.85,WSW,250,7.0,15.0,63,0.00,,,0.00,weatherlink.com 1.10,2013-04-28 14:19:00,
2013-04-28 08:34:00,50.0,38.0,29.85,NW,324,2.0,9.0,64,0.00,,,0.00,weatherlink.com 1.10,2013-04-28 14:34:00,
2013-04-28 08:49:00,49.7,38.0,29.85,NW,311,2.0,9.0,65,0.00,,,0.00,weatherlink.com 1.10,2013-04-28 14:49:00,
2013-04-28 09:04:00,49.4,38.0,29.85,North,9,4.0,8.0,66,0.00,,,0.00,weatherlink.com 1.10,2013-04-28 15:04:00,
2013-04-28 09:19:00,49.6,39.0,29.85,NNW,327,5.0,5.0,66,0.00,,,0.00,weatherlink.com 1.10,2013-04-28 15:19:00,
2013-04-28 09:34:00,50.2,39.0,29.84,North,10,3.0,5.0,66,0.00,,,0.00,weatherlink.com 1.10,2013-04-28 15:34:00,
2013-04-28 09:49:00,50.5,39.0,29.84,North,9,2.0,8.0,64,0.00,,,0.00,weatherlink.com 1.10,2013-04-28 15:49:00,
2013-04-28 10:04:00,51.0,38.0,29.84,North,355,4.0,8.0,62,0.00,,,0.00,weatherlink.com 1.10,2013-04-28 16:04:00,
2013-04-28 10:19:00,50.9,39.0,29.85,North,351,4.0,10.0,63,0.00,,,0.00,weatherlink.com 1.10,2013-04-28 16:19:00,
2013-04-28 10:34:00,51.2,38.0,29.84,ENE,63,5.0,7.0,61,0.00,,,0.00,weatherlink.com 1.10,2013-04-28 16:34:00,
2013-04-28 10:49:00,52.1,38.0,29.84,ENE,67,4.0,9.0,58,0.00,,,0.00,weatherlink.com 1.10,2013-04-28 16:49:00,
2013-04-28 11:04:00,53.4,37.0,29.84,SSE,165,3.0,6.0,54,0.00,,,0.00,weatherlink.com 1.10,2013-04-28 17:04:00,
2013-04-28 11:19:00,54.8,35.0,29.84,WNW,300,3.0,8.0,48,0.00,,,0.00,weatherlink.com 1.10,2013-04-28 17:19:00,
2013-04-28 11:34:00,54.1,36.0,29.84,WNW,294,6.0,11.0,50,0.00,,,0.00,weatherlink.com 1.10,2013-04-28 17:34:00,
2013-04-28 11:49:00,51.3,36.0,29.85,NW,315,12.0,22.0,57,0.00,,,0.00,weatherlink.com 1.10,2013-04-28 17:49:00,
2013-04-28 12:04:00,51.2,36.0,29.86,WSW,254,8.0,17.0,57,0.00,,,0.00,weatherlink.com 1.10,2013-04-28 18:04:00,
2013-04-28 12:19:00,51.3,36.0,29.86,WNW,297,7.0,17.0,56,0.00,,,0.00,weatherlink.com 1.10,2013-04-28 18:19:00,
2013-04-28 12:34:00,53.3,35.0,29.86,NW,309,7.0,22.0,51,0.00,,,0.00,weatherlink.com 1.10,2013-04-28 18:34:00,
2013-04-28 12:49:00,54.6,32.0,29.86,NW,313,7.0,18.0,42,0.00,,,0.00,weatherlink.com 1.10,2013-04-28 18:49:00,
2013-04-28 13:04:00,56.0,31.0,29.85,West,273,1.0,16.0,38,0.00,,,0.00,weatherlink.com 1.10,2013-04-28 19:04:00,
2013-04-28 13:19:00,56.0,33.0,29.84,NW,306,9.0,10.0,42,0.00,,,0.00,weatherlink.com 1.10,2013-04-28 19:19:00,
2013-04-28 13:34:00,55.9,35.0,29.84,WNW,297,9.0,16.0,45,0.00,,,0.00,weatherlink.com 1.10,2013-04-28 19:34:00,
2013-04-28 13:49:00,55.4,34.0,29.84,NNW,334,13.0,18.0,45,0.00,,,0.00,weatherlink.com 1.10,2013-04-28 19:49:00,
2013-04-28 14:04:00,54.6,35.0,29.83,WNW,284,11.0,23.0,47,0.00,,,0.00,weatherlink.com 1.10,2013-04-28 20:04:00,
2013-04-28 14:20:00,54.2,35.0,29.83,NNW,330,11.0,23.0,49,0.00,,,0.00,weatherlink.com 1.10,2013-04-28 20:20:00,
2013-04-28 14:35:00,55.1,35.0,29.83,NNW,338,9.0,21.0,47,0.00,,,0.00,weatherlink.com 1.10,2013-04-28 20:35:00,
2013-04-28 14:50:00,56.2,34.0,29.82,NW,308,9.0,18.0,43,0.00,,,0.00,weatherlink.com 1.10,2013-04-28 20:50:00,
2013-04-28 15:05:00,56.3,34.0,29.81,NW,308,4.0,14.0,43,0.00,,,0.00,weatherlink.com 1.10,2013-04-28 21:05:00,
2013-04-28 15:20:00,55.8,36.0,29.81,NW,319,23.0,23.0,47,0.00,,,0.00,weatherlink.com 1.10,2013-04-28 21:20:00,
2013-04-28 15:35:00,52.3,37.0,29.82,NNW,346,8.0,27.0,56,0.00,,,0.00,weatherlink.com 1.10,2013-04-28 21:35:00,
2013-04-28 15:50:00,54.2,37.0,29.81,North,355,11.0,19.0,53,0.00,,,0.00,weatherlink.com 1.10,2013-04-28 21:50:00,
2013-04-28 16:05:00,56.9,34.0,29.81,WNW,292,7.0,16.0,42,0.00,,,0.00,weatherlink.com 1.10,2013-04-28 22:05:00,
2013-04-28 16:20:00,57.0,33.0,29.80,WSW,244,2.0,11.0,40,0.00,,,0.00,weatherlink.com 1.10,2013-04-28 22:20:00,
2013-04-28 16:35:00,57.2,33.0,29.79,WNW,285,8.0,12.0,40,0.00,,,0.00,weatherlink.com 1.10,2013-04-28 22:35:00,
2013-04-28 16:50:00,56.0,32.0,29.79,NNW,329,7.0,17.0,41,0.00,,,0.00,weatherlink.com 1.10,2013-04-28 22:50:00,
2013-04-28 17:05:00,56.0,34.0,29.80,South,169,4.0,11.0,43,0.00,,,0.00,weatherlink.com 1.10,2013-04-28 23:05:00,
2013-04-28 17:20:00,56.9,34.0,29.79,WNW,288,9.0,14.0,43,0.00,,,0.00,weatherlink.com 1.10,2013-04-28 23:20:00,
2013-04-28 17:35:00,57.5,33.0,29.79,NNW,328,9.0,15.0,40,0.00,,,0.00,weatherlink.com 1.10,2013-04-28 23:35:00,
2013-04-28 17:50:00,57.3,32.0,29.79,NW,309,9.0,12.0,39,0.00,,,0.00,weatherlink.com 1.10,2013-04-28 23:50:00,
2013-04-28 18:05:00,53.7,36.0,29.79,NW,322,9.0,26.0,52,0.00,,,0.00,weatherlink.com 1.10,2013-04-29 00:05:00,
2013-04-28 18:20:00,53.7,36.0,29.80,SSW,213,4.0,14.0,52,0.00,,,0.00,weatherlink.com 1.10,2013-04-29 00:20:00,
2013-04-28 18:35:00,54.9,34.0,29.79,NW,304,5.0,8.0,45,0.00,,,0.00,weatherlink.com 1.10,2013-04-29 00:35:00,
2013-04-28 18:50:00,54.9,34.0,29.78,East,86,1.0,9.0,45,0.00,,,0.00,weatherlink.com 1.10,2013-04-29 00:50:00,
2013-04-28 19:05:00,54.4,33.0,29.77,NNW,339,1.0,6.0,44,0.00,,,0.00,weatherlink.com 1.10,2013-04-29 01:05:00,
2013-04-28 19:20:00,54.4,34.0,29.76,North,355,6.0,6.0,46,0.00,,,0.00,weatherlink.com 1.10,2013-04-29 01:20:00,
2013-04-28 19:35:00,54.8,34.0,29.76,NW,325,4.0,9.0,46,0.00,,,0.00,weatherlink.com 1.10,2013-04-29 01:35:00,
2013-04-28 19:50:00,54.8,34.0,29.75,NW,307,0.0,5.0,45,0.00,,,0.00,weatherlink.com 1.10,2013-04-29 01:50:00,
2013-04-28 20:05:00,53.9,34.0,29.75,NNW,344,3.0,7.0,47,0.00,,,0.00,weatherlink.com 1.10,2013-04-29 02:05:00,
2013-04-28 20:20:00,53.7,33.0,29.74,NNW,337,4.0,7.0,46,0.00,,,0.00,weatherlink.com 1.10,2013-04-29 02:20:00,
2013-04-28 20:35:00,53.2,34.0,29.75,WNW,302,0.0,10.0,48,0.00,,,0.00,weatherlink.com 1.10,2013-04-29 02:35:00,
2013-04-28 20:50:00,52.1,34.0,29.75,East,80,5.0,7.0,50,0.00,,,0.00,weatherlink.com 1.10,2013-04-29 02:50:00,
2013-04-28 21:05:00,50.9,34.0,29.75,East,84,3.0,5.0,53,0.00,,,0.00,weatherlink.com 1.10,2013-04-29 03:05:00,
2013-04-28 21:20:00,50.6,34.0,29.74,ENE,59,8.0,8.0,53,0.00,,,0.00,weatherlink.com 1.10,2013-04-29 03:20:00,
2013-04-28 21:35:00,49.8,33.0,29.74,NE,51,6.0,8.0,53,0.00,,,0.00,weatherlink.com 1.10,2013-04-29 03:35:00,
2013-04-28 21:50:00,49.9,33.0,29.74,NE,41,6.0,8.0,53,0.00,,,0.00,weatherlink.com 1.10,2013-04-29 03:50:00,
2013-04-28 22:05:00,49.3,34.0,29.74,ENE,62,7.0,7.0,56,0.00,,,0.00,weatherlink.com 1.10,2013-04-29 04:05:00,
2013-04-28 22:20:00,49.5,34.0,29.73,NE,50,6.0,7.0,56,0.00,,,0.00,weatherlink.com 1.10,2013-04-29 04:20:00,
2013-04-28 22:35:00,50.0,34.0,29.73,North,360,0.0,4.0,54,0.00,,,0.00,weatherlink.com 1.10,2013-04-29 04:35:00,
2013-04-28 22:50:00,50.1,33.0,29.73,ENE,78,5.0,8.0,52,0.00,,,0.00,weatherlink.com 1.10,2013-04-29 04:50:00,
2013-04-28 23:05:00,50.6,33.0,29.72,NE,53,6.0,7.0,52,0.00,,,0.00,weatherlink.com 1.10,2013-04-29 05:05:00,
2013-04-28 23:20:00,50.5,33.0,29.72,NNE,26,3.0,6.0,51,0.00,,,0.00,weatherlink.com 1.10,2013-04-29 05:20:00,
2013-04-28 23:35:00,51.0,33.0,29.71,East,98,5.0,6.0,51,0.00,,,0.00,weatherlink.com 1.10,2013-04-29 05:35:00,
2013-04-28 23:50:00,51.7,33.0,29.71,NNE,12,7.0,10.0,49,0.00,,,0.00,weatherlink.com 1.10,2013-04-29 05:50:00,